Home   Weather   Bangui   Past weeks
Flag for Central African Republic

Past Weather in Bangui, Central African Republic — Yesterday and Last 2 Weeks

Now
84 °F

Passing clouds.


Feels Like: 91 °F
Forecast: 83 / 71 °F
Wind: 9 mph from Southwest

Location: Bangui Airport

Current Time: May 22, 2019 at 10:06:30 am

Latest Report: May 22, 2019 at 9:00 am


Visibility: N/A

Pressure: 29.89 "Hg

Humidity: 70%

Dew Point: 73 °F

Location of BanguiLocation

Past Weather in Bangui — Graph

°F

Bangui Temperature Yesterday

Maximum temperature yesterday: 91 °F (at 3:00 pm)
Minimum temperature yesterday: 75 °F (at 1:00 am)
Average temperature yesterday: 81 °F

High & Low Weather Summary for the Past Weeks

 TemperatureHumidityPressure
High95 °F (May 20, 3:00 pm)100% (May 17, 1:00 am)29.95 "Hg (May 17, 1:00 am)
Low72 °F (May 18, 7:00 am)39% (May 20, 3:00 pm)29.71 "Hg (May 17, 5:00 pm)
Average81 °F81%29.84 "Hg
* Reported May 15 12:00 pm — May 22 8:00 am, Bangui. Weather by CustomWeather, © 2019

Note: Actual official high and low records may vary slightly from our data, if they occured in-between our weather recording intervals... More about our weather records

Advertising

Bangui Weather History for the Previous 24 Hours

Scroll right to see more
 ConditionsComfort  
Time TempWeatherWind HumidityBarometerVisibility
8:00 am
Wed, May 22
81 °FPassing clouds.5 mph79%29.89 "HgN/A
7:00 am77 °FPassing clouds.2 mph94%29.89 "Hg5 mi
6:00 am75 °FPassing clouds.No wind100%29.86 "Hg4 mi
5:00 am75 °FClear.No wind94%29.83 "Hg10 mi
4:00 am75 °FPassing clouds.No wind100%29.83 "HgN/A
3:00 am77 °FPassing clouds.No wind94%29.83 "HgN/A
2:00 am77 °FClear.No wind94%29.86 "Hg10 mi
1:00 am77 °FClear.2 mph94%29.83 "Hg10 mi
12:00 am79 °FClear.No wind89%29.86 "Hg10 mi
11:00 pm
Tue, May 21
81 °FClear.No wind84%29.83 "Hg10 mi
10:00 pm81 °FClear.No wind84%29.83 "Hg10 mi
9:00 pm82 °FThunderstorms. Passing clouds.2 mph84%29.80 "HgN/A
8:00 pm82 °FPassing clouds.2 mph100%29.80 "HgN/A
7:00 pm84 °FPassing clouds.2 mph70%29.77 "HgN/A
5:00 pm91 °FScattered clouds.5 mph52%29.74 "HgN/A
4:00 pm91 °FScattered clouds.3 mph49%29.74 "HgN/A
3:00 pm91 °FScattered clouds.3 mph52%29.77 "HgN/A
10:00 am86 °FPartly sunny.8 mph66%29.89 "HgN/A
Weather by CustomWeather, © 2019

See weather overview